Location: Focicchia
(42.2496°N, 9.2935°E)
Time: 00:53:21
(UTC+00:00)

CZ-2D R/B - Visible Passes

Search period start: 14 June 2021 00:00
Search period end: 24 June 2021 00:00
Orbit: 791 x 845 km, 98.7° (Epoch: 13 June)

Date Brightness Start Highest point End Pass type
(mag) Time Alt. Az. Time Alt. Az. Time Alt. Az.
14 Jun 3.0 00:23:29 10° NNE 00:28:20 38° E 00:29:56 31° SE visible
14 Jun 3.3 02:03:51 10° N 02:08:13 28° WNW 02:11:15 16° WSW visible
15 Jun 3.6 00:02:40 10° NE 00:06:54 25° E 00:08:23 22° ESE visible
15 Jun 2.7 01:42:12 10° N 01:47:05 42° WNW 01:49:42 24° WSW visible
15 Jun 4.1 23:42:19 10° NE 23:45:24 16° E 23:46:50 14° ESE visible
16 Jun 2.2 01:20:44 10° N 01:25:54 65° WNW 01:28:09 33° SW visible
17 Jun 2.0 00:59:23 10° NNE 01:04:38 82° ESE 01:06:36 40° S visible
17 Jun 4.1 02:41:22 10° NNW 02:43:58 14° WNW 02:46:35 10° W visible
18 Jun 2.5 00:38:12 10° NNE 00:43:18 52° E 00:45:03 37° SSE visible
18 Jun 3.7 02:19:09 10° NNW 02:22:58 21° WNW 02:26:22 12° WSW visible
19 Jun 3.2 00:17:13 10° NNE 00:21:55 33° E 00:23:29 28° SE visible
19 Jun 3.2 01:57:21 10° N 02:01:53 31° WNW 02:04:48 18° WSW visible
19 Jun 3.7 23:56:30 10° NE 00:00:28 22° E 00:01:56 19° ESE visible
20 Jun 2.6 01:35:45 10° N 01:40:45 47° WNW 01:43:15 27° SW visible
20 Jun 4.2 23:36:23 10° ENE 23:38:56 14° E 23:40:22 12° ESE visible
21 Jun 2.1 01:14:19 10° N 01:19:31 74° WNW 01:21:41 36° SSW visible
21 Jun 4.3 02:57:56 10° NW 02:58:39 10° NW 02:59:21 10° WNW visible
22 Jun 2.1 00:53:01 10° NNE 00:58:15 72° ESE 01:00:08 40° S visible
22 Jun 4.0 02:34:38 10° NNW 02:37:41 16° WNW 02:40:44 10° W visible
23 Jun 2.7 00:31:53 10° NNE 00:36:54 46° E 00:38:34 34° SE visible
23 Jun 3.5 02:12:35 10° NNW 02:16:39 24° WNW 02:19:53 14° WSW visible
